{"data":{"norad_id":64518,"epoch":"2026-05-25T00:21:03.395232Z","epoch_age_seconds":74051,"freshness":"FRESH","line1":"1 64518U 25134U   26145.01462263  .00003199  00000+0  44838-3 0  9992","line2":"2 64518  51.9002 248.0281 0001701  76.3650 283.7502 14.79938314 51488","mean_motion":14.79938314,"eccentricity":0.0001701,"inclination_deg":51.9002,"raan_deg":248.0281,"arg_perigee_deg":76.365,"mean_anomaly_deg":283.7502,"bstar":0.00044838,"rev_number":5148,"period_min":97.301352791384,"perigee_km":628.32685198319,"apogee_km":630.71085650481,"semimajor_km":7007.655854244,"source":"CELESTRAK","updated_at":"2026-05-25T13:38:04.576282Z"}}